When you browse on this site, cookies collect data to enhance your experience and personalize the content and advertising you see.
Visit our Privacy Policy to learn more. By continuing to use the site, you agree to this use of cookies and data.
  • In Hungary
  • List of Countries
  • For 7 days
  • Water Temperature
  • Satellite Maps
  • Weather Map
  • News
  • Weather Widgets
  • user-avatar
    Login

    Hourly Weather Bugry

    Today, 20 November, Tuesday

    Time Temperature Precipitation Wind Pressure Humidity
    00:00 -2°C° 0 mm 2 mps 764 mmHg 95%
    01:00 -2°C° 0 mm 2 mps 763 mmHg 95%
    02:00 -2°C° 0 mm 2 mps 763 mmHg 96%
    03:00 -2°C° 0 mm 2 mps 763 mmHg 96%
    04:00 -2°C° 0 mm 2 mps 763 mmHg 96%
    05:00 -2°C° 0 mm 2 mps 763 mmHg 96%
    06:00 -2°C° 0 mm 2 mps 763 mmHg 96%
    07:00 -2°C° 0.1 mm 2 mps 763 mmHg 95%
    08:00 -2°C° 0.1 mm 2 mps 762 mmHg 94%
    09:00 -1°C° 0 mm 2 mps 762 mmHg 93%
    10:00 -1°C° 0.2 mm 2 mps 762 mmHg 91%
    11:00 -1°C° 0.2 mm 2 mps 762 mmHg 89%
    12:00 -1°C° 0.2 mm 2 mps 762 mmHg 87%
    13:00 -1°C° 0.2 mm 2 mps 761 mmHg 89%
    14:00 -1°C° 0.2 mm 2 mps 761 mmHg 90%
    15:00 -1°C° 0.2 mm 2 mps 761 mmHg 92%
    16:00 -1°C° 0.1 mm 2 mps 761 mmHg 92%
    17:00 -2°C° 0.1 mm 2 mps 760 mmHg 93%
    18:00 -2°C° 0.1 mm 2 mps 760 mmHg 94%
    19:00 -2°C° 0 mm 2 mps 760 mmHg 93%
    20:00 -3°C° 0 mm 2 mps 760 mmHg 93%
    21:00 -3°C° 0 mm 2 mps 759 mmHg 92%
    22:00 -3°C° 0 mm 2 mps 759 mmHg 91%
    23:00 -4°C° 0 mm 2 mps 759 mmHg 91%

    Tomorrow, 21 November, Wednesday

    Time Temperature Precipitation Wind Pressure Humidity
    00:00 -4°C° 0 mm 2 mps 758 mmHg 91%
    01:00 -4°C° 0 mm 2 mps 758 mmHg 91%
    02:00 -4°C° 0 mm 2 mps 758 mmHg 91%
    03:00 -4°C° 0 mm 2 mps 757 mmHg 91%
    04:00 -5°C° 0 mm 3 mps 757 mmHg 89%
    05:00 -5°C° 0 mm 3 mps 756 mmHg 88%
    06:00 -4°C° 0 mm 4 mps 756 mmHg 86%
    07:00 -4°C° 0.2 mm 4 mps 755 mmHg 86%
    08:00 -5°C° 0.2 mm 5 mps 755 mmHg 86%
    09:00 -5°C° 0.2 mm 5 mps 754 mmHg 86%
    10:00 -5°C° 0.1 mm 5 mps 754 mmHg 83%
    11:00 -4°C° 0.1 mm 6 mps 753 mmHg 79%
    12:00 -4°C° 0.1 mm 6 mps 753 mmHg 76%
    13:00 -4°C° 0 mm 5 mps 752 mmHg 77%
    14:00 -4°C° 0 mm 5 mps 752 mmHg 78%
    15:00 -4°C° 0 mm 5 mps 752 mmHg 79%
    16:00 -4°C° 0 mm 5 mps 752 mmHg 80%
    17:00 -4°C° 0 mm 5 mps 752 mmHg 81%
    18:00 -4°C° 0 mm 5 mps 752 mmHg 82%
    19:00 -5°C° 0 mm 5 mps 752 mmHg 79%
    20:00 -6°C° 0 mm 5 mps 752 mmHg 76%
    21:00 -7°C° 0 mm 5 mps 752 mmHg 72%
    22:00 -7°C° 0 mm 4 mps 752 mmHg 73%
    23:00 -7°C° 0 mm 4 mps 752 mmHg 74%

    Day after tomorrow, 22 November, Thursday

    Time Temperature Precipitation Wind Pressure Humidity
    00:00 -7°C° 0 mm 4 mps 752 mmHg 75%
    01:00 -8°C° 0 mm 4 mps 753 mmHg 76%
    02:00 -8°C° 0 mm 4 mps 753 mmHg 78%
    03:00 -8°C° 0 mm 4 mps 753 mmHg 79%
    04:00 -8°C° 0 mm 4 mps 753 mmHg 80%
    05:00 -8°C° 0 mm 4 mps 753 mmHg 82%
    06:00 -8°C° 0 mm 4 mps 753 mmHg 83%
    07:00 -8°C° 0 mm 4 mps 753 mmHg 82%
    08:00 -8°C° 0 mm 4 mps 753 mmHg 81%
    09:00 -7°C° 0 mm 4 mps 753 mmHg 81%
    10:00 -7°C° 0 mm 4 mps 752 mmHg 79%
    11:00 -5°C° 0 mm 4 mps 752 mmHg 77%
    12:00 -6°C° 0 mm 5 mps 752 mmHg 74%
    13:00 -6°C° 0 mm 5 mps 752 mmHg 74%
    14:00 -6°C° 0 mm 5 mps 751 mmHg 74%
    15:00 -6°C° 0 mm 5 mps 751 mmHg 74%
    16:00 -6°C° 0 mm 5 mps 750 mmHg 75%
    17:00 -6°C° 0 mm 5 mps 750 mmHg 75%
    18:00 -6°C° 0 mm 6 mps 749 mmHg 76%
    19:00 -6°C° 0.1 mm 6 mps 748 mmHg 78%
    20:00 -8°C° 0.1 mm 6 mps 748 mmHg 79%
    21:00 -8°C° 0.1 mm 6 mps 747 mmHg 81%
    22:00 -8°C° 0.1 mm 6 mps 746 mmHg 83%
    23:00 -8°C° 0.1 mm 7 mps 745 mmHg 84%

    23 November, Friday

    Time Temperature Precipitation Wind Pressure Humidity
    00:00 -8°C° 0.1 mm 7 mps 745 mmHg 86%
    01:00 -8°C° 0.5 mm 7 mps 743 mmHg 87%
    02:00 -7°C° 0.5 mm 7 mps 742 mmHg 88%
    03:00 -7°C° 0.5 mm 7 mps 741 mmHg 90%
    04:00 -7°C° 0.2 mm 7 mps 741 mmHg 87%
    05:00 -7°C° 0.2 mm 7 mps 740 mmHg 85%
    06:00 -7°C° 0.2 mm 7 mps 740 mmHg 82%
    07:00 -8°C° 0.2 mm 8 mps 740 mmHg 83%
    08:00 -8°C° 0.2 mm 8 mps 741 mmHg 84%
    09:00 -8°C° 0.2 mm 8 mps 741 mmHg 86%
    10:00 -9°C° 0.4 mm 9 mps 742 mmHg 83%
    11:00 -11°C° 0.4 mm 11 mps 743 mmHg 80%
    12:00 -11°C° 0.4 mm 12 mps 744 mmHg 77%
    13:00 -11°C° 0.1 mm 12 mps 746 mmHg 76%
    14:00 -12°C° 0.1 mm 11 mps 747 mmHg 75%
    15:00 -13°C° 0.1 mm 11 mps 749 mmHg 74%
    16:00 -13°C° 0 mm 10 mps 751 mmHg 75%
    17:00 -12°C° 0 mm 9 mps 752 mmHg 76%
    18:00 -12°C° 0 mm 9 mps 754 mmHg 77%
    19:00 -12°C° 0 mm 8 mps 755 mmHg 78%
    20:00 -12°C° 0 mm 7 mps 756 mmHg 79%
    21:00 -12°C° 0 mm 7 mps 757 mmHg 80%
    22:00 -11°C° 0 mm 6 mps 757 mmHg 81%
    23:00 -12°C° 0 mm 6 mps 758 mmHg 82%

    24 November, Saturday

    Time Temperature Precipitation Wind Pressure Humidity
    00:00 -12°C° 0 mm 5 mps 759 mmHg 84%
    01:00 -12°C° 0 mm 5 mps 759 mmHg 85%
    02:00 -11°C° 0 mm 4 mps 760 mmHg 86%
    03:00 -11°C° 0 mm 4 mps 760 mmHg 88%
    04:00 -11°C° 0 mm 4 mps 760 mmHg 88%
    05:00 -11°C° 0 mm 4 mps 760 mmHg 87%
    06:00 -11°C° 0 mm 4 mps 761 mmHg 87%
    07:00 -11°C° 0 mm 4 mps 761 mmHg 84%
    08:00 -11°C° 0 mm 5 mps 761 mmHg 81%
    09:00 -11°C° 0 mm 5 mps 761 mmHg 78%
    10:00 -10°C° 0 mm 5 mps 761 mmHg 77%
    11:00 -9°C° 0 mm 6 mps 761 mmHg 76%
    12:00 -9°C° 0 mm 6 mps 760 mmHg 75%
    13:00 -9°C° 0 mm 6 mps 760 mmHg 75%
    14:00 -9°C° 0 mm 6 mps 760 mmHg 76%
    15:00 -9°C° 0 mm 6 mps 760 mmHg 77%
    16:00 -9°C° 0 mm 6 mps 760 mmHg 77%
    17:00 -9°C° 0 mm 7 mps 759 mmHg 76%
    18:00 -9°C° 0 mm 7 mps 759 mmHg 76%
    19:00 -9°C° 0 mm 7 mps 759 mmHg 77%
    20:00 -8°C° 0 mm 7 mps 759 mmHg 77%
    21:00 -8°C° 0 mm 7 mps 758 mmHg 77%
    22:00 -8°C° 0 mm 7 mps 758 mmHg 77%
    23:00 -8°C° 0 mm 7 mps 758 mmHg 78%

    25 November, Sunday

    Time Temperature Precipitation Wind Pressure Humidity
    00:00 -8°C° 0 mm 7 mps 758 mmHg 78%
    01:00 -8°C° 0 mm 7 mps 758 mmHg 79%
    02:00 -8°C° 0 mm 7 mps 757 mmHg 80%
    03:00 -8°C° 0 mm 7 mps 757 mmHg 81%
    04:00 -8°C° 0 mm 7 mps 757 mmHg 81%
    05:00 -8°C° 0 mm 6 mps 757 mmHg 82%
    06:00 -8°C° 0 mm 6 mps 757 mmHg 82%
    07:00 -8°C° 0 mm 6 mps 757 mmHg 83%
    08:00 -8°C° 0 mm 6 mps 758 mmHg 83%
    09:00 -6°C° 0 mm 6 mps 758 mmHg 84%
    10:00 -6°C° 0.1 mm 6 mps 758 mmHg 84%
    11:00 -6°C° 0.1 mm 5 mps 758 mmHg 84%
    12:00 -5°C° 0.1 mm 5 mps 758 mmHg 84%
    13:00 -4°C° 0.1 mm 4 mps 758 mmHg 86%
    14:00 -5°C° 0.1 mm 4 mps 758 mmHg 87%
    15:00 -5°C° 0.1 mm 3 mps 758 mmHg 89%
    16:00 -5°C° 0 mm 3 mps 758 mmHg 90%
    17:00 -5°C° 0 mm 3 mps 758 mmHg 91%
    18:00 -5°C° 0 mm 3 mps 758 mmHg 93%
    19:00 -5°C° 0 mm 3 mps 758 mmHg 93%
    20:00 -6°C° 0 mm 3 mps 758 mmHg 93%
    21:00 -5°C° 0 mm 2 mps 758 mmHg 93%
    22:00 -5°C° 0.1 mm 2 mps 758 mmHg 93%
    23:00 -5°C° 0.1 mm 2 mps 758 mmHg 93%
    Show more